Location: Paddlesworth
(51.1000°N, 1.1333°E)
Time: 09:08:07
(UTC+00:00)

COSMOS 2406 - Pass Details

Date: 11 May 2021
Orbit: 845 x 862 km, 71.0° (Epoch: 15 June)

Event Time Altitude Azimuth Distance (km) Brightness Sun altitude
Rises 21:40:53 0° 325° (NW) 3,416 8.3 -15.1°
Reaches altitude 10° 21:43:28 10° 318° (NW) 2,477 7.0 -15.3°
Maximum altitude 21:48:41 39° 252° (WSW) 1,254 4.2 -15.7°
Enters shadow 21:52:43 16° 191° (S) 2,069 4.8 -16.0°
